Time,TemperatureF,DewpointF,PressureIn,WindDirection,WindDirectionDegrees,WindSpeedMPH,WindSpeedGustMPH,Humidity,HourlyPrecipIn,Conditions,Clouds,dailyrainin,SolarRadiationWatts/m^2,SoftwareType,DateUTC
2013-08-11 00:01:00,65.6,57.1,30.03,NE,44,0.0,0.0,74,0.00,,,0.00,520,WeatherCatV1.14B232,2013-08-11 04:01:00,
2013-08-11 00:06:00,65.5,57.0,30.03,NE,44,0.0,0.0,74,0.00,,,0.00,520,WeatherCatV1.14B232,2013-08-11 04:06:00,
2013-08-11 00:11:00,65.3,56.8,30.03,NE,44,0.0,0.0,74,0.00,,,0.00,520,WeatherCatV1.14B232,2013-08-11 04:11:00,
2013-08-11 00:16:00,65.1,56.6,30.03,NE,44,0.0,0.0,74,0.00,,,0.00,520,WeatherCatV1.14B232,2013-08-11 04:16:00,
2013-08-11 00:21:00,65.0,56.5,30.03,NE,44,0.0,0.0,74,0.00,,,0.00,520,WeatherCatV1.14B232,2013-08-11 04:21:00,
2013-08-11 00:26:00,64.9,56.4,30.03,NE,44,0.0,0.0,74,0.00,,,0.00,520,WeatherCatV1.14B232,2013-08-11 04:26:00,
2013-08-11 00:31:00,64.8,56.7,30.03,NE,44,0.0,0.0,75,0.00,,,0.00,520,WeatherCatV1.14B232,2013-08-11 04:31:00,
2013-08-11 00:36:00,64.6,56.9,30.04,NE,44,0.0,0.0,76,0.00,,,0.00,520,WeatherCatV1.14B232,2013-08-11 04:36:00,
2013-08-11 00:41:00,64.3,56.6,30.04,NE,44,0.0,0.0,76,0.00,,,0.00,520,WeatherCatV1.14B232,2013-08-11 04:41:00,
2013-08-11 00:46:00,64.1,57.1,30.04,NE,44,0.0,0.0,78,0.00,,,0.00,520,WeatherCatV1.14B232,2013-08-11 04:46:00,
2013-08-11 00:51:00,63.8,56.8,30.04,NE,44,0.0,0.0,78,0.00,,,0.00,520,WeatherCatV1.14B232,2013-08-11 04:51:00,
2013-08-11 00:56:00,63.5,56.9,30.04,NE,44,0.0,0.0,79,0.00,,,0.00,520,WeatherCatV1.14B232,2013-08-11 04:56:00,
2013-08-11 01:01:00,63.3,57.0,30.04,NE,44,0.0,0.0,80,0.00,,,0.00,520,WeatherCatV1.14B232,2013-08-11 05:01:00,
2013-08-11 01:06:00,63.1,56.8,30.04,NE,44,0.0,1.0,80,0.00,,,0.00,520,WeatherCatV1.14B232,2013-08-11 05:06:00,
2013-08-11 01:11:00,62.9,56.3,30.04,NE,44,0.0,0.0,79,0.00,,,0.00,520,WeatherCatV1.14B232,2013-08-11 05:11:00,
2013-08-11 01:16:00,62.8,56.2,30.04,NE,44,0.0,0.0,79,0.00,,,0.00,520,WeatherCatV1.14B232,2013-08-11 05:16:00,
2013-08-11 01:21:00,62.6,56.0,30.04,NE,44,0.0,0.0,79,0.00,,,0.00,520,WeatherCatV1.14B232,2013-08-11 05:21:00,
2013-08-11 01:26:00,62.4,56.1,30.04,NE,44,1.0,1.0,80,0.00,,,0.00,520,WeatherCatV1.14B232,2013-08-11 05:26:00,
2013-08-11 01:31:00,62.4,56.1,30.04,NE,44,0.0,1.0,80,0.00,,,0.00,520,WeatherCatV1.14B232,2013-08-11 05:31:00,
2013-08-11 01:36:00,62.4,56.1,30.04,NE,44,0.0,0.0,80,0.00,,,0.00,520,WeatherCatV1.14B232,2013-08-11 05:36:00,
2013-08-11 01:41:00,62.5,56.2,30.04,NE,44,0.0,0.0,80,0.00,,,0.00,520,WeatherCatV1.14B232,2013-08-11 05:41:00,
2013-08-11 01:46:00,62.5,55.9,30.04,NE,44,0.0,0.0,79,0.00,,,0.00,520,WeatherCatV1.14B232,2013-08-11 05:46:00,
2013-08-11 01:51:00,62.6,56.3,30.04,NE,44,0.0,1.0,80,0.00,,,0.00,520,WeatherCatV1.14B232,2013-08-11 05:51:00,
2013-08-11 01:56:00,62.6,56.3,30.05,NE,44,0.0,0.0,80,0.00,,,0.00,520,WeatherCatV1.14B232,2013-08-11 05:56:00,
2013-08-11 02:01:00,62.6,56.3,30.05,NE,44,0.0,0.0,80,0.00,,,0.00,520,WeatherCatV1.14B232,2013-08-11 06:01:00,
2013-08-11 02:06:00,62.6,56.3,30.05,NE,44,0.0,0.0,80,0.00,,,0.00,520,WeatherCatV1.14B232,2013-08-11 06:06:00,
2013-08-11 02:11:00,62.6,56.3,30.05,NE,44,0.0,0.0,80,0.00,,,0.00,520,WeatherCatV1.14B232,2013-08-11 06:11:00,
2013-08-11 02:16:00,62.5,56.6,30.05,NE,44,0.0,0.0,81,0.00,,,0.00,520,WeatherCatV1.14B232,2013-08-11 06:16:00,
2013-08-11 02:21:00,62.4,56.5,30.05,NE,44,0.0,1.0,81,0.00,,,0.00,520,WeatherCatV1.14B232,2013-08-11 06:21:00,
2013-08-11 02:26:00,62.4,56.5,30.05,NE,44,0.0,0.0,81,0.00,,,0.00,520,WeatherCatV1.14B232,2013-08-11 06:26:00,
2013-08-11 02:31:00,62.4,56.5,30.05,NE,44,0.0,0.0,81,0.00,,,0.00,520,WeatherCatV1.14B232,2013-08-11 06:31:00,
2013-08-11 02:36:00,62.3,56.4,30.05,NE,44,0.0,0.0,81,0.00,,,0.00,520,WeatherCatV1.14B232,2013-08-11 06:36:00,
2013-08-11 02:41:00,62.2,55.9,30.05,NE,44,0.0,0.0,80,0.00,,,0.00,520,WeatherCatV1.14B232,2013-08-11 06:41:00,
2013-08-11 02:46:00,62.1,56.2,30.05,NE,44,0.0,0.0,81,0.00,,,0.00,520,WeatherCatV1.14B232,2013-08-11 06:46:00,
2013-08-11 02:47:00,62.1,56.2,30.05,NE,44,0.0,0.0,81,0.00,,,0.00,520,WeatherCatV1.14B232,2013-08-11 06:47:00,
2013-08-11 02:48:00,62.1,55.9,30.05,NE,44,0.0,1.0,80,0.00,,,0.00,520,WeatherCatV1.14B232,2013-08-11 06:48:00,
2013-08-11 02:52:00,62.0,56.1,30.05,NE,44,0.0,0.0,81,0.00,,,0.00,520,WeatherCatV1.14B232,2013-08-11 06:52:00,
2013-08-11 02:57:00,61.9,55.7,30.06,NE,44,0.0,0.0,80,0.00,,,0.00,520,WeatherCatV1.14B232,2013-08-11 06:57:00,
2013-08-11 03:00:00,61.8,55.6,30.06,NE,44,0.0,1.0,80,0.00,,,0.00,520,WeatherCatV1.14B232,2013-08-11 07:00:00,
2013-08-11 03:05:00,61.7,55.5,30.06,NE,44,0.0,0.0,80,0.00,,,0.00,520,WeatherCatV1.14B232,2013-08-11 07:05:00,
2013-08-11 03:08:00,61.6,55.4,30.06,NE,44,0.0,0.0,80,0.00,,,0.00,520,WeatherCatV1.14B232,2013-08-11 07:08:00,
2013-08-11 03:11:00,61.6,55.7,30.06,NE,44,0.0,0.0,81,0.00,,,0.00,520,WeatherCatV1.14B232,2013-08-11 07:11:00,
2013-08-11 03:16:00,61.5,55.6,30.06,NE,44,0.0,1.0,81,0.00,,,0.00,520,WeatherCatV1.14B232,2013-08-11 07:16:00,
2013-08-11 03:17:00,61.5,55.3,30.06,NE,44,0.0,0.0,80,0.00,,,0.00,520,WeatherCatV1.14B232,2013-08-11 07:17:00,
2013-08-11 03:22:00,61.4,55.2,30.06,NE,44,0.0,1.0,80,0.00,,,0.00,520,WeatherCatV1.14B232,2013-08-11 07:22:00,
2013-08-11 03:26:00,61.3,55.4,30.06,NE,44,0.0,0.0,81,0.00,,,0.00,520,WeatherCatV1.14B232,2013-08-11 07:26:00,
2013-08-11 03:28:00,61.3,55.4,30.06,NE,44,0.0,0.0,81,0.00,,,0.00,520,WeatherCatV1.14B232,2013-08-11 07:28:00,
2013-08-11 03:33:00,61.1,55.2,30.06,NE,44,0.0,0.0,81,0.00,,,0.00,520,WeatherCatV1.14B232,2013-08-11 07:33:00,
2013-08-11 03:38:00,60.9,55.0,30.06,NE,44,0.0,0.0,81,0.00,,,0.00,520,WeatherCatV1.14B232,2013-08-11 07:38:00,
2013-08-11 03:43:00,60.8,54.9,30.06,NE,44,0.0,0.0,81,0.00,,,0.00,520,WeatherCatV1.14B232,2013-08-11 07:43:00,
2013-08-11 03:48:00,60.8,54.9,30.07,NE,44,0.0,0.0,81,0.00,,,0.00,520,WeatherCatV1.14B232,2013-08-11 07:48:00,
2013-08-11 03:53:00,60.7,54.8,30.07,NE,44,0.0,0.0,81,0.00,,,0.00,520,WeatherCatV1.14B232,2013-08-11 07:53:00,
2013-08-11 03:58:00,60.7,55.2,30.07,NE,44,0.0,0.0,82,0.00,,,0.00,520,WeatherCatV1.14B232,2013-08-11 07:58:00,
2013-08-11 04:00:00,60.6,54.7,30.07,NE,44,0.0,0.0,81,0.00,,,0.00,520,WeatherCatV1.14B232,2013-08-11 08:00:00,
2013-08-11 04:05:00,60.4,54.9,30.06,NE,44,0.0,0.0,82,0.00,,,0.00,520,WeatherCatV1.14B232,2013-08-11 08:05:00,
2013-08-11 04:10:00,60.2,54.7,30.06,NE,44,0.0,0.0,82,0.00,,,0.00,520,WeatherCatV1.14B232,2013-08-11 08:10:00,
2013-08-11 04:15:00,60.1,54.9,30.06,NE,44,0.0,0.0,83,0.00,,,0.00,520,WeatherCatV1.14B232,2013-08-11 08:15:00,
2013-08-11 04:20:00,59.9,54.7,30.07,NE,44,0.0,0.0,83,0.00,,,0.00,520,WeatherCatV1.14B232,2013-08-11 08:20:00,
2013-08-11 04:21:00,59.9,54.7,30.06,NE,44,0.0,0.0,83,0.00,,,0.00,520,WeatherCatV1.14B232,2013-08-11 08:21:00,
2013-08-11 04:26:00,59.7,54.5,30.06,NE,44,0.0,0.0,83,0.00,,,0.00,520,WeatherCatV1.14B232,2013-08-11 08:26:00,
2013-08-11 04:31:00,59.6,54.4,30.07,NE,44,0.0,0.0,83,0.00,,,0.00,520,WeatherCatV1.14B232,2013-08-11 08:31:00,
2013-08-11 04:36:00,59.4,54.2,30.07,NE,44,0.0,0.0,83,0.00,,,0.00,520,WeatherCatV1.14B232,2013-08-11 08:36:00,
2013-08-11 04:41:00,59.2,54.4,30.07,NE,44,0.0,0.0,84,0.00,,,0.00,520,WeatherCatV1.14B232,2013-08-11 08:41:00,
2013-08-11 04:46:00,59.1,54.3,30.07,NE,44,0.0,0.0,84,0.00,,,0.00,520,WeatherCatV1.14B232,2013-08-11 08:46:00,
2013-08-11 04:51:00,59.0,54.2,30.07,NE,44,0.0,0.0,84,0.00,,,0.00,520,WeatherCatV1.14B232,2013-08-11 08:51:00,
2013-08-11 04:56:00,58.9,54.4,30.08,NE,44,0.0,0.0,85,0.00,,,0.00,520,WeatherCatV1.14B232,2013-08-11 08:56:00,
2013-08-11 05:01:00,58.7,54.2,30.07,NE,44,0.0,0.0,85,0.00,,,0.00,520,WeatherCatV1.14B232,2013-08-11 09:01:00,
2013-08-11 05:06:00,58.6,54.1,30.08,NE,44,0.0,0.0,85,0.00,,,0.00,520,WeatherCatV1.14B232,2013-08-11 09:06:00,
2013-08-11 05:11:00,58.4,53.9,30.08,NE,44,0.0,0.0,85,0.00,,,0.00,520,WeatherCatV1.14B232,2013-08-11 09:11:00,
2013-08-11 05:16:00,58.3,53.8,30.08,NE,44,0.0,0.0,85,0.00,,,0.00,520,WeatherCatV1.14B232,2013-08-11 09:16:00,
2013-08-11 05:21:00,58.3,53.8,30.08,NE,44,0.0,0.0,85,0.00,,,0.00,520,WeatherCatV1.14B232,2013-08-11 09:21:00,
2013-08-11 05:26:00,58.4,53.9,30.08,NE,44,0.0,0.0,85,0.00,,,0.00,520,WeatherCatV1.14B232,2013-08-11 09:26:00,
2013-08-11 05:31:00,58.5,54.0,30.08,NE,44,0.0,0.0,85,0.00,,,0.00,520,WeatherCatV1.14B232,2013-08-11 09:31:00,
2013-08-11 05:36:00,58.4,53.9,30.08,NE,44,0.0,0.0,85,0.00,,,0.00,520,WeatherCatV1.14B232,2013-08-11 09:36:00,
2013-08-11 05:41:00,58.4,53.9,30.08,NE,44,0.0,0.0,85,0.00,,,0.00,520,WeatherCatV1.14B232,2013-08-11 09:41:00,
2013-08-11 05:46:00,58.4,53.9,30.08,NE,44,0.0,0.0,85,0.00,,,0.00,520,WeatherCatV1.14B232,2013-08-11 09:46:00,
2013-08-11 05:51:00,58.4,53.9,30.08,NE,44,0.0,0.0,85,0.00,,,0.00,520,WeatherCatV1.14B232,2013-08-11 09:51:00,
2013-08-11 05:56:00,58.6,54.1,30.08,NE,44,0.0,0.0,85,0.00,,,0.00,520,WeatherCatV1.14B232,2013-08-11 09:56:00,
2013-08-11 05:57:00,58.6,54.1,30.08,NE,44,0.0,0.0,85,0.00,,,0.00,520,WeatherCatV1.14B232,2013-08-11 09:57:00,
2013-08-11 06:02:00,58.7,53.9,30.08,NE,44,0.0,0.0,84,0.00,,,0.00,520,WeatherCatV1.14B232,2013-08-11 10:02:00,
2013-08-11 06:07:00,58.9,53.4,30.08,NE,44,0.0,0.0,82,0.00,,,0.00,520,WeatherCatV1.14B232,2013-08-11 10:07:00,
2013-08-11 06:08:00,58.9,53.4,30.08,NE,44,0.0,0.0,82,0.00,,,0.00,520,WeatherCatV1.14B232,2013-08-11 10:08:00,
2013-08-11 06:12:00,59.0,53.5,30.08,NE,44,0.0,0.0,82,0.00,,,0.00,520,WeatherCatV1.14B232,2013-08-11 10:12:00,
2013-08-11 06:13:00,59.0,53.5,30.08,NE,44,0.0,0.0,82,0.00,,,0.00,520,WeatherCatV1.14B232,2013-08-11 10:13:00,
2013-08-11 06:18:00,58.9,53.4,30.09,NE,44,0.0,0.0,82,0.00,,,0.00,520,WeatherCatV1.14B232,2013-08-11 10:18:00,
2013-08-11 06:23:00,58.9,53.7,30.09,NE,44,0.0,0.0,83,0.00,,,0.00,520,WeatherCatV1.14B232,2013-08-11 10:23:00,
2013-08-11 06:28:00,58.8,53.3,30.09,NE,44,0.0,0.0,82,0.00,,,0.00,520,WeatherCatV1.14B232,2013-08-11 10:28:00,
2013-08-11 06:33:00,58.7,53.2,30.09,NE,44,0.0,0.0,82,0.00,,,0.00,520,WeatherCatV1.14B232,2013-08-11 10:33:00,
2013-08-11 06:38:00,58.6,53.1,30.09,NE,44,0.0,0.0,82,0.00,,,0.00,520,WeatherCatV1.14B232,2013-08-11 10:38:00,
2013-08-11 06:43:00,58.6,53.5,30.09,NE,44,0.0,0.0,83,0.00,,,0.00,520,WeatherCatV1.14B232,2013-08-11 10:43:00,
2013-08-11 06:48:00,58.7,53.5,30.10,NE,44,0.0,0.0,83,0.00,,,0.00,520,WeatherCatV1.14B232,2013-08-11 10:48:00,
2013-08-11 06:53:00,58.8,53.6,30.10,NE,44,0.0,0.0,83,0.00,,,0.00,520,WeatherCatV1.14B232,2013-08-11 10:53:00,
2013-08-11 06:58:00,58.7,53.5,30.10,NE,44,0.0,0.0,83,0.00,,,0.00,520,WeatherCatV1.14B232,2013-08-11 10:58:00,
2013-08-11 07:03:00,58.8,54.0,30.10,NE,44,0.0,0.0,84,0.00,,,0.00,520,WeatherCatV1.14B232,2013-08-11 11:03:00,
2013-08-11 07:08:00,59.0,54.5,30.10,NE,44,0.0,0.0,85,0.00,,,0.00,520,WeatherCatV1.14B232,2013-08-11 11:08:00,
2013-08-11 07:13:00,59.0,54.5,30.10,NE,44,0.0,0.0,85,0.00,,,0.00,520,WeatherCatV1.14B232,2013-08-11 11:13:00,
2013-08-11 07:18:00,59.0,54.8,30.10,NE,44,0.0,0.0,86,0.00,,,0.00,520,WeatherCatV1.14B232,2013-08-11 11:18:00,
2013-08-11 07:23:00,59.1,54.6,30.10,NE,44,0.0,0.0,85,0.00,,,0.00,520,WeatherCatV1.14B232,2013-08-11 11:23:00,
2013-08-11 07:28:00,59.3,54.8,30.10,NE,44,1.0,1.0,85,0.00,,,0.00,520,WeatherCatV1.14B232,2013-08-11 11:28:00,
2013-08-11 07:33:00,59.5,55.0,30.10,NE,44,0.0,1.0,85,0.00,,,0.00,520,WeatherCatV1.14B232,2013-08-11 11:33:00,
2013-08-11 07:38:00,59.8,55.3,30.10,NE,44,0.0,0.0,85,0.00,,,0.00,520,WeatherCatV1.14B232,2013-08-11 11:38:00,
2013-08-11 07:43:00,60.3,55.4,30.10,NE,44,0.0,0.0,84,0.00,,,0.00,520,WeatherCatV1.14B232,2013-08-11 11:43:00,
2013-08-11 07:48:00,61.7,55.5,30.10,NE,44,0.0,0.0,80,0.00,,,0.00,520,WeatherCatV1.14B232,2013-08-11 11:48:00,
2013-08-11 07:53:00,63.5,55.4,30.10,NE,44,0.0,1.0,75,0.00,,,0.00,520,WeatherCatV1.14B232,2013-08-11 11:53:00,
2013-08-11 07:58:00,65.1,56.6,30.10,NE,44,1.0,1.0,74,0.00,,,0.00,520,WeatherCatV1.14B232,2013-08-11 11:58:00,
2013-08-11 08:03:00,65.6,55.9,30.10,NE,44,0.0,1.0,71,0.00,,,0.00,520,WeatherCatV1.14B232,2013-08-11 12:03:00,
2013-08-11 08:08:00,66.1,56.8,30.10,NE,44,0.0,0.0,72,0.00,,,0.00,520,WeatherCatV1.14B232,2013-08-11 12:08:00,
2013-08-11 08:13:00,67.3,58.0,30.10,NE,44,0.0,0.0,72,0.00,,,0.00,520,WeatherCatV1.14B232,2013-08-11 12:13:00,
2013-08-11 08:18:00,68.6,57.2,30.11,NE,44,0.0,1.0,67,0.00,,,0.00,520,WeatherCatV1.14B232,2013-08-11 12:18:00,
2013-08-11 08:23:00,69.7,57.8,30.11,NE,44,0.0,0.0,66,0.00,,,0.00,520,WeatherCatV1.14B232,2013-08-11 12:23:00,
2013-08-11 08:28:00,69.9,56.7,30.11,NE,44,0.0,1.0,63,0.00,,,0.00,520,WeatherCatV1.14B232,2013-08-11 12:28:00,
2013-08-11 08:33:00,69.8,58.3,30.11,NE,44,0.0,1.0,67,0.00,,,0.00,520,WeatherCatV1.14B232,2013-08-11 12:33:00,
2013-08-11 08:38:00,70.0,57.2,30.11,NE,44,0.0,1.0,64,0.00,,,0.00,520,WeatherCatV1.14B232,2013-08-11 12:38:00,
2013-08-11 08:43:00,70.2,56.6,30.11,NE,44,0.0,0.0,62,0.00,,,0.00,520,WeatherCatV1.14B232,2013-08-11 12:43:00,
2013-08-11 08:48:00,70.6,57.8,30.10,NE,44,0.0,1.0,64,0.00,,,0.00,520,WeatherCatV1.14B232,2013-08-11 12:48:00,
2013-08-11 08:53:00,70.8,57.6,30.10,NE,44,0.0,0.0,63,0.00,,,0.00,520,WeatherCatV1.14B232,2013-08-11 12:53:00,
2013-08-11 08:58:00,71.5,57.8,30.10,NE,44,0.0,0.0,62,0.00,,,0.00,520,WeatherCatV1.14B232,2013-08-11 12:58:00,
2013-08-11 09:03:00,71.5,58.2,30.10,NE,44,0.0,1.0,63,0.00,,,0.00,520,WeatherCatV1.14B232,2013-08-11 13:03:00,
2013-08-11 09:08:00,72.1,57.0,30.10,NE,44,0.0,1.0,59,0.00,,,0.00,520,WeatherCatV1.14B232,2013-08-11 13:08:00,
2013-08-11 09:13:00,72.7,58.5,30.10,NE,44,0.0,0.0,61,0.00,,,0.00,520,WeatherCatV1.14B232,2013-08-11 13:13:00,
2013-08-11 09:18:00,72.3,55.7,30.10,NE,44,1.0,1.0,56,0.00,,,0.00,520,WeatherCatV1.14B232,2013-08-11 13:18:00,
2013-08-11 09:23:00,72.8,56.7,30.10,NE,44,0.0,1.0,57,0.00,,,0.00,520,WeatherCatV1.14B232,2013-08-11 13:23:00,
2013-08-11 09:28:00,73.2,57.0,30.10,NE,44,0.0,0.0,57,0.00,,,0.00,520,WeatherCatV1.14B232,2013-08-11 13:28:00,
2013-08-11 09:33:00,73.8,57.1,30.10,NE,44,0.0,2.0,56,0.00,,,0.00,520,WeatherCatV1.14B232,2013-08-11 13:33:00,
2013-08-11 09:38:00,73.9,55.7,30.10,NE,44,1.0,1.0,53,0.00,,,0.00,520,WeatherCatV1.14B232,2013-08-11 13:38:00,
2013-08-11 09:43:00,73.7,56.5,30.10,NE,44,0.0,1.0,55,0.00,,,0.00,520,WeatherCatV1.14B232,2013-08-11 13:43:00,
2013-08-11 09:48:00,73.8,55.1,30.10,NE,44,1.0,1.0,52,0.00,,,0.00,520,WeatherCatV1.14B232,2013-08-11 13:48:00,
2013-08-11 09:53:00,73.5,55.8,30.10,NE,44,1.0,1.0,54,0.00,,,0.00,520,WeatherCatV1.14B232,2013-08-11 13:53:00,
2013-08-11 09:58:00,73.7,56.0,30.10,NE,44,0.0,2.0,54,0.00,,,0.00,520,WeatherCatV1.14B232,2013-08-11 13:58:00,
2013-08-11 10:03:00,74.6,56.8,30.10,NE,44,0.0,1.0,54,0.00,,,0.00,520,WeatherCatV1.14B232,2013-08-11 14:03:00,
2013-08-11 10:08:00,75.3,57.5,30.11,NE,44,1.0,1.0,54,0.00,,,0.00,520,WeatherCatV1.14B232,2013-08-11 14:08:00,
2013-08-11 10:13:00,74.4,56.1,30.10,NE,44,1.0,2.0,53,0.00,,,0.00,520,WeatherCatV1.14B232,2013-08-11 14:13:00,
2013-08-11 10:18:00,74.0,55.8,30.10,NE,44,0.0,3.0,53,0.00,,,0.00,520,WeatherCatV1.14B232,2013-08-11 14:18:00,
2013-08-11 10:23:00,74.5,57.8,30.10,NE,44,0.0,0.0,56,0.00,,,0.00,520,WeatherCatV1.14B232,2013-08-11 14:23:00,
2013-08-11 10:28:00,75.3,57.5,30.10,NE,44,0.0,0.0,54,0.00,,,0.00,520,WeatherCatV1.14B232,2013-08-11 14:28:00,
2013-08-11 10:33:00,75.9,56.5,30.10,NE,44,0.0,2.0,51,0.00,,,0.00,520,WeatherCatV1.14B232,2013-08-11 14:33:00,
2013-08-11 10:38:00,76.2,55.6,30.10,NE,44,0.0,0.0,49,0.00,,,0.00,520,WeatherCatV1.14B232,2013-08-11 14:38:00,
2013-08-11 10:43:00,77.2,58.7,30.10,NE,44,0.0,0.0,53,0.00,,,0.00,520,WeatherCatV1.14B232,2013-08-11 14:43:00,
2013-08-11 10:48:00,77.1,57.0,30.10,NE,44,0.0,2.0,50,0.00,,,0.00,520,WeatherCatV1.14B232,2013-08-11 14:48:00,
2013-08-11 10:53:00,76.2,56.7,30.10,NE,44,0.0,1.0,51,0.00,,,0.00,520,WeatherCatV1.14B232,2013-08-11 14:53:00,
2013-08-11 10:58:00,76.6,57.6,30.10,NE,44,0.0,2.0,52,0.00,,,0.00,520,WeatherCatV1.14B232,2013-08-11 14:58:00,
2013-08-11 11:03:00,76.5,57.0,30.10,NE,44,0.0,1.0,51,0.00,,,0.00,520,WeatherCatV1.14B232,2013-08-11 15:03:00,
2013-08-11 11:08:00,77.7,58.7,30.10,NE,44,0.0,1.0,52,0.00,,,0.00,520,WeatherCatV1.14B232,2013-08-11 15:08:00,
2013-08-11 11:13:00,78.3,58.1,30.10,NE,44,0.0,1.0,50,0.00,,,0.00,520,WeatherCatV1.14B232,2013-08-11 15:13:00,
2013-08-11 11:18:00,78.6,58.9,30.10,NE,44,0.0,1.0,51,0.00,,,0.00,520,WeatherCatV1.14B232,2013-08-11 15:18:00,
2013-08-11 11:23:00,77.7,56.4,30.10,NE,44,1.0,2.0,48,0.00,,,0.00,520,WeatherCatV1.14B232,2013-08-11 15:23:00,
2013-08-11 11:28:00,75.7,57.3,30.09,NE,44,1.0,2.0,53,0.00,,,0.00,520,WeatherCatV1.14B232,2013-08-11 15:28:00,
2013-08-11 11:33:00,75.3,57.0,30.10,NE,44,0.0,1.0,53,0.00,,,0.00,520,WeatherCatV1.14B232,2013-08-11 15:33:00,
2013-08-11 11:38:00,75.9,58.6,30.10,NE,44,0.0,1.0,55,0.00,,,0.00,520,WeatherCatV1.14B232,2013-08-11 15:38:00,
2013-08-11 11:43:00,75.9,59.1,30.10,NE,44,0.0,0.0,56,0.00,,,0.00,520,WeatherCatV1.14B232,2013-08-11 15:43:00,
2013-08-11 11:48:00,75.5,58.7,30.10,NE,44,0.0,1.0,56,0.00,,,0.00,520,WeatherCatV1.14B232,2013-08-11 15:48:00,
2013-08-11 11:53:00,75.1,59.3,30.10,NE,44,1.0,1.0,58,0.00,,,0.00,520,WeatherCatV1.14B232,2013-08-11 15:53:00,
2013-08-11 11:58:00,74.6,58.3,30.10,NE,44,0.0,1.0,57,0.00,,,0.00,520,WeatherCatV1.14B232,2013-08-11 15:58:00,
2013-08-11 12:03:00,74.3,56.6,30.10,NE,44,0.0,2.0,54,0.00,,,0.00,520,WeatherCatV1.14B232,2013-08-11 16:03:00,
2013-08-11 12:08:00,74.1,56.4,30.09,NE,44,0.0,0.0,54,0.00,,,0.00,520,WeatherCatV1.14B232,2013-08-11 16:08:00,
2013-08-11 12:13:00,74.0,57.3,30.09,NE,44,0.0,1.0,56,0.00,,,0.00,520,WeatherCatV1.14B232,2013-08-11 16:13:00,
2013-08-11 12:18:00,74.1,57.4,30.09,NE,44,0.0,1.0,56,0.00,,,0.00,520,WeatherCatV1.14B232,2013-08-11 16:18:00,
2013-08-11 12:23:00,74.1,57.9,30.08,NE,44,0.0,0.0,57,0.00,,,0.00,520,WeatherCatV1.14B232,2013-08-11 16:23:00,
2013-08-11 12:28:00,73.7,57.5,30.09,NE,44,0.0,0.0,57,0.00,,,0.00,520,WeatherCatV1.14B232,2013-08-11 16:28:00,
2013-08-11 12:33:00,73.4,58.2,30.08,NE,44,0.0,0.0,59,0.00,,,0.00,520,WeatherCatV1.14B232,2013-08-11 16:33:00,
2013-08-11 12:38:00,73.2,58.0,30.08,NE,44,0.0,0.0,59,0.00,,,0.00,520,WeatherCatV1.14B232,2013-08-11 16:38:00,
2013-08-11 12:43:00,73.1,59.3,30.08,NE,44,0.0,0.0,62,0.00,,,0.00,520,WeatherCatV1.14B232,2013-08-11 16:43:00,
2013-08-11 12:48:00,72.8,58.1,30.08,NE,44,0.0,0.0,60,0.00,,,0.00,520,WeatherCatV1.14B232,2013-08-11 16:48:00,
2013-08-11 12:53:00,73.0,58.7,30.08,NE,44,0.0,0.0,61,0.00,,,0.00,520,WeatherCatV1.14B232,2013-08-11 16:53:00,
2013-08-11 12:58:00,73.1,58.8,30.08,NE,44,0.0,0.0,61,0.00,,,0.00,520,WeatherCatV1.14B232,2013-08-11 16:58:00,
2013-08-11 13:03:00,73.4,58.7,30.08,NE,44,0.0,0.0,60,0.00,,,0.00,520,WeatherCatV1.14B232,2013-08-11 17:03:00,
2013-08-11 13:08:00,74.0,58.7,30.08,NE,44,0.0,0.0,59,0.00,,,0.00,520,WeatherCatV1.14B232,2013-08-11 17:08:00,
2013-08-11 13:13:00,74.8,59.0,30.08,NE,44,0.0,1.0,58,0.00,,,0.00,520,WeatherCatV1.14B232,2013-08-11 17:13:00,
2013-08-11 13:18:00,76.0,59.6,30.07,NE,44,0.0,1.0,57,0.00,,,0.00,520,WeatherCatV1.14B232,2013-08-11 17:18:00,
2013-08-11 13:23:00,77.1,60.2,30.07,NE,44,0.0,0.0,56,0.00,,,0.00,520,WeatherCatV1.14B232,2013-08-11 17:23:00,
2013-08-11 13:28:00,77.4,60.5,30.07,NE,44,0.0,0.0,56,0.00,,,0.00,520,WeatherCatV1.14B232,2013-08-11 17:28:00,
2013-08-11 13:33:00,77.7,60.2,30.07,NE,44,0.0,1.0,55,0.00,,,0.00,520,WeatherCatV1.14B232,2013-08-11 17:33:00,
2013-08-11 13:38:00,78.0,60.0,30.07,NE,44,0.0,1.0,54,0.00,,,0.00,520,WeatherCatV1.14B232,2013-08-11 17:38:00,
2013-08-11 13:43:00,78.3,60.3,30.06,NE,44,0.0,0.0,54,0.00,,,0.00,520,WeatherCatV1.14B232,2013-08-11 17:43:00,
2013-08-11 13:48:00,78.8,61.2,30.06,NE,44,0.0,1.0,55,0.00,,,0.00,520,WeatherCatV1.14B232,2013-08-11 17:48:00,
2013-08-11 13:53:00,79.1,61.0,30.06,NE,44,1.0,2.0,54,0.00,,,0.00,520,WeatherCatV1.14B232,2013-08-11 17:53:00,
2013-08-11 13:58:00,79.2,62.1,30.06,NE,44,0.0,1.0,56,0.00,,,0.00,520,WeatherCatV1.14B232,2013-08-11 17:58:00,
2013-08-11 14:03:00,78.8,59.7,30.06,NE,44,0.0,2.0,52,0.00,,,0.00,520,WeatherCatV1.14B232,2013-08-11 18:03:00,
2013-08-11 14:08:00,78.7,60.1,30.06,NE,44,0.0,2.0,53,0.00,,,0.00,520,WeatherCatV1.14B232,2013-08-11 18:08:00,
2013-08-11 14:13:00,79.3,60.1,30.06,NE,44,0.0,1.0,52,0.00,,,0.00,520,WeatherCatV1.14B232,2013-08-11 18:13:00,
2013-08-11 14:18:00,79.6,60.9,30.06,NE,44,0.0,2.0,53,0.00,,,0.00,520,WeatherCatV1.14B232,2013-08-11 18:18:00,
2013-08-11 14:23:00,79.6,59.3,30.06,NE,44,0.0,1.0,50,0.00,,,0.00,520,WeatherCatV1.14B232,2013-08-11 18:23:00,
2013-08-11 14:28:00,78.6,59.5,30.06,NE,44,1.0,1.0,52,0.00,,,0.00,520,WeatherCatV1.14B232,2013-08-11 18:28:00,
2013-08-11 14:33:00,77.7,59.7,30.05,NE,44,0.0,1.0,54,0.00,,,0.00,520,WeatherCatV1.14B232,2013-08-11 18:33:00,
2013-08-11 14:38:00,77.3,60.4,30.05,NE,44,0.0,0.0,56,0.00,,,0.00,520,WeatherCatV1.14B232,2013-08-11 18:38:00,
2013-08-11 14:43:00,77.3,59.9,30.05,NE,44,0.0,0.0,55,0.00,,,0.00,520,WeatherCatV1.14B232,2013-08-11 18:43:00,
2013-08-11 14:48:00,77.2,59.8,30.05,NE,44,0.0,0.0,55,0.00,,,0.00,520,WeatherCatV1.14B232,2013-08-11 18:48:00,
2013-08-11 14:53:00,76.7,59.3,30.05,NE,44,0.0,1.0,55,0.00,,,0.00,520,WeatherCatV1.14B232,2013-08-11 18:53:00,
2013-08-11 14:58:00,76.6,59.7,30.05,NE,44,0.0,1.0,56,0.00,,,0.00,520,WeatherCatV1.14B232,2013-08-11 18:58:00,
2013-08-11 15:03:00,76.9,59.5,30.05,NE,44,1.0,1.0,55,0.00,,,0.00,520,WeatherCatV1.14B232,2013-08-11 19:03:00,
2013-08-11 15:08:00,77.2,59.2,30.05,NE,44,0.0,0.0,54,0.00,,,0.00,520,WeatherCatV1.14B232,2013-08-11 19:08:00,
2013-08-11 15:13:00,78.1,62.1,30.04,NE,44,0.0,1.0,58,0.00,,,0.00,520,WeatherCatV1.14B232,2013-08-11 19:13:00,
2013-08-11 15:18:00,78.7,60.6,30.04,NE,44,0.0,1.0,54,0.00,,,0.00,520,WeatherCatV1.14B232,2013-08-11 19:18:00,
2013-08-11 15:23:00,79.1,62.5,30.04,NE,44,1.0,1.0,57,0.00,,,0.00,520,WeatherCatV1.14B232,2013-08-11 19:23:00,
2013-08-11 15:28:00,79.2,60.6,30.04,NE,44,1.0,1.0,53,0.00,,,0.00,520,WeatherCatV1.14B232,2013-08-11 19:28:00,
2013-08-11 15:33:00,78.9,60.3,30.04,NE,44,0.0,1.0,53,0.00,,,0.00,520,WeatherCatV1.14B232,2013-08-11 19:33:00,
2013-08-11 15:38:00,78.7,60.6,30.03,NE,44,0.0,1.0,54,0.00,,,0.00,520,WeatherCatV1.14B232,2013-08-11 19:38:00,
2013-08-11 15:43:00,78.6,61.6,30.03,NE,44,0.0,1.0,56,0.00,,,0.00,520,WeatherCatV1.14B232,2013-08-11 19:43:00,
2013-08-11 15:48:00,78.3,62.3,30.03,NE,44,0.0,1.0,58,0.00,,,0.00,520,WeatherCatV1.14B232,2013-08-11 19:48:00,
2013-08-11 15:53:00,77.6,60.6,30.03,NE,44,0.0,0.0,56,0.00,,,0.00,520,WeatherCatV1.14B232,2013-08-11 19:53:00,
2013-08-11 15:58:00,77.4,61.4,30.03,NE,44,0.0,0.0,58,0.00,,,0.00,520,WeatherCatV1.14B232,2013-08-11 19:58:00,
2013-08-11 16:03:00,77.4,60.5,30.03,NE,44,0.0,1.0,56,0.00,,,0.00,520,WeatherCatV1.14B232,2013-08-11 20:03:00,
2013-08-11 16:06:00,77.5,60.5,30.03,NE,44,0.0,2.0,56,0.00,,,0.00,520,WeatherCatV1.14B232,2013-08-11 20:06:00,
2013-08-11 16:08:00,77.5,60.5,30.03,NE,44,1.0,2.0,56,0.00,,,0.00,520,WeatherCatV1.14B232,2013-08-11 20:08:00,
2013-08-11 16:13:00,77.3,60.4,30.03,NE,44,0.0,1.0,56,0.00,,,0.00,520,WeatherCatV1.14B232,2013-08-11 20:13:00,
2013-08-11 16:18:00,77.0,60.6,30.03,NE,44,0.0,0.0,57,0.00,,,0.00,520,WeatherCatV1.14B232,2013-08-11 20:18:00,
2013-08-11 16:23:00,76.8,61.4,30.03,NE,44,0.0,0.0,59,0.00,,,0.00,520,WeatherCatV1.14B232,2013-08-11 20:23:00,
2013-08-11 16:28:00,76.7,61.3,30.03,NE,44,0.0,0.0,59,0.00,,,0.00,520,WeatherCatV1.14B232,2013-08-11 20:28:00,
2013-08-11 16:33:00,76.5,61.1,30.03,NE,44,0.0,0.0,59,0.00,,,0.00,520,WeatherCatV1.14B232,2013-08-11 20:33:00,
2013-08-11 16:38:00,76.1,61.2,30.03,NE,44,0.0,0.0,60,0.00,,,0.00,520,WeatherCatV1.14B232,2013-08-11 20:38:00,
2013-08-11 16:43:00,75.9,61.0,30.03,NE,44,0.0,1.0,60,0.00,,,0.00,520,WeatherCatV1.14B232,2013-08-11 20:43:00,
2013-08-11 16:48:00,75.7,61.3,30.03,NE,44,0.0,1.0,61,0.00,,,0.00,520,WeatherCatV1.14B232,2013-08-11 20:48:00,
2013-08-11 16:53:00,75.5,61.5,30.03,NE,44,0.0,0.0,62,0.00,,,0.00,520,WeatherCatV1.14B232,2013-08-11 20:53:00,
2013-08-11 16:58:00,75.4,61.0,30.02,NE,44,0.0,0.0,61,0.00,,,0.00,520,WeatherCatV1.14B232,2013-08-11 20:58:00,
2013-08-11 17:03:00,75.7,61.3,30.02,NE,44,0.0,0.0,61,0.00,,,0.00,520,WeatherCatV1.14B232,2013-08-11 21:03:00,
2013-08-11 17:08:00,76.2,62.7,30.03,NE,44,0.0,0.0,63,0.00,,,0.00,520,WeatherCatV1.14B232,2013-08-11 21:08:00,
2013-08-11 17:13:00,76.1,61.7,30.03,NE,44,1.0,2.0,61,0.00,,,0.00,520,WeatherCatV1.14B232,2013-08-11 21:13:00,
2013-08-11 17:18:00,76.0,62.9,30.02,NE,44,0.0,0.0,64,0.00,,,0.00,520,WeatherCatV1.14B232,2013-08-11 21:18:00,
2013-08-11 17:23:00,76.1,62.6,30.02,NE,44,0.0,1.0,63,0.00,,,0.00,520,WeatherCatV1.14B232,2013-08-11 21:23:00,
2013-08-11 17:28:00,76.0,62.9,30.02,NE,44,0.0,1.0,64,0.00,,,0.00,520,WeatherCatV1.14B232,2013-08-11 21:28:00,
2013-08-11 17:33:00,75.8,62.3,30.02,NE,44,0.0,0.0,63,0.00,,,0.00,520,WeatherCatV1.14B232,2013-08-11 21:33:00,
2013-08-11 17:38:00,75.9,62.4,30.02,NE,44,1.0,1.0,63,0.00,,,0.00,520,WeatherCatV1.14B232,2013-08-11 21:38:00,
2013-08-11 17:43:00,75.8,61.8,30.02,NE,44,0.0,1.0,62,0.00,,,0.00,520,WeatherCatV1.14B232,2013-08-11 21:43:00,
2013-08-11 17:48:00,75.7,61.7,30.02,NE,44,0.0,1.0,62,0.00,,,0.00,520,WeatherCatV1.14B232,2013-08-11 21:48:00,
2013-08-11 17:53:00,75.5,61.5,30.02,NE,44,0.0,1.0,62,0.00,,,0.00,520,WeatherCatV1.14B232,2013-08-11 21:53:00,
2013-08-11 17:58:00,75.6,62.1,30.02,NE,44,0.0,1.0,63,0.00,,,0.00,520,WeatherCatV1.14B232,2013-08-11 21:58:00,
2013-08-11 18:03:00,75.7,62.2,30.02,NE,44,0.0,1.0,63,0.00,,,0.00,520,WeatherCatV1.14B232,2013-08-11 22:03:00,
2013-08-11 18:08:00,75.8,61.4,30.01,NE,44,0.0,0.0,61,0.00,,,0.00,520,WeatherCatV1.14B232,2013-08-11 22:08:00,
2013-08-11 18:13:00,75.7,61.7,30.01,NE,44,0.0,0.0,62,0.00,,,0.00,520,WeatherCatV1.14B232,2013-08-11 22:13:00,
2013-08-11 18:18:00,75.6,61.2,30.01,NE,44,0.0,0.0,61,0.00,,,0.00,520,WeatherCatV1.14B232,2013-08-11 22:18:00,
2013-08-11 18:23:00,75.5,61.5,30.01,NE,44,0.0,0.0,62,0.00,,,0.00,520,WeatherCatV1.14B232,2013-08-11 22:23:00,
2013-08-11 18:28:00,75.3,61.8,30.01,NE,44,0.0,0.0,63,0.00,,,0.00,520,WeatherCatV1.14B232,2013-08-11 22:28:00,
2013-08-11 18:33:00,75.2,61.7,30.01,NE,44,0.0,0.0,63,0.00,,,0.00,520,WeatherCatV1.14B232,2013-08-11 22:33:00,
2013-08-11 18:38:00,74.9,61.9,30.01,NE,44,0.0,0.0,64,0.00,,,0.00,520,WeatherCatV1.14B232,2013-08-11 22:38:00,
2013-08-11 18:43:00,74.7,61.7,30.01,NE,44,0.0,0.0,64,0.00,,,0.00,520,WeatherCatV1.14B232,2013-08-11 22:43:00,
2013-08-11 18:48:00,74.4,61.8,30.01,NE,44,0.0,0.0,65,0.00,,,0.00,520,WeatherCatV1.14B232,2013-08-11 22:48:00,
2013-08-11 18:53:00,74.1,62.0,30.01,NE,44,0.0,0.0,66,0.00,,,0.00,520,WeatherCatV1.14B232,2013-08-11 22:53:00,
2013-08-11 18:58:00,73.8,61.7,30.01,NE,44,0.0,0.0,66,0.00,,,0.00,520,WeatherCatV1.14B232,2013-08-11 22:58:00,
2013-08-11 19:03:00,73.6,62.8,30.01,NE,44,0.0,0.0,69,0.00,,,0.00,520,WeatherCatV1.14B232,2013-08-11 23:03:00,
2013-08-11 19:08:00,73.2,62.4,30.01,NE,44,0.0,0.0,69,0.00,,,0.00,520,WeatherCatV1.14B232,2013-08-11 23:08:00,
2013-08-11 19:13:00,72.9,62.5,30.01,NE,44,0.0,0.0,70,0.00,,,0.00,520,WeatherCatV1.14B232,2013-08-11 23:13:00,
2013-08-11 19:18:00,72.7,62.3,30.01,NE,44,0.0,0.0,70,0.00,,,0.00,520,WeatherCatV1.14B232,2013-08-11 23:18:00,
2013-08-11 19:23:00,72.5,62.1,30.01,NE,44,0.0,0.0,70,0.00,,,0.00,520,WeatherCatV1.14B232,2013-08-11 23:23:00,
2013-08-11 19:28:00,72.4,62.8,30.01,NE,44,0.0,0.0,72,0.00,,,0.00,520,WeatherCatV1.14B232,2013-08-11 23:28:00,
2013-08-11 19:33:00,72.1,63.0,30.01,NE,44,0.0,0.0,73,0.00,,,0.00,520,WeatherCatV1.14B232,2013-08-11 23:33:00,
2013-08-11 19:38:00,71.9,62.4,30.01,NE,44,0.0,0.0,72,0.00,,,0.00,520,WeatherCatV1.14B232,2013-08-11 23:38:00,
2013-08-11 19:43:00,71.6,62.5,30.01,NE,44,0.0,0.0,73,0.00,,,0.00,520,WeatherCatV1.14B232,2013-08-11 23:43:00,
2013-08-11 19:48:00,71.5,62.0,30.01,NE,44,0.0,0.0,72,0.00,,,0.00,520,WeatherCatV1.14B232,2013-08-11 23:48:00,
2013-08-11 19:53:00,71.3,61.8,30.01,NE,44,0.0,0.0,72,0.00,,,0.00,520,WeatherCatV1.14B232,2013-08-11 23:53:00,
2013-08-11 19:58:00,71.2,61.7,30.01,NE,44,0.0,0.0,72,0.00,,,0.00,520,WeatherCatV1.14B232,2013-08-11 23:58:00,
2013-08-11 20:03:00,71.0,61.9,30.01,NE,44,0.0,0.0,73,0.00,,,0.00,520,WeatherCatV1.14B232,2013-08-12 00:03:00,
2013-08-11 20:08:00,70.8,62.1,30.01,NE,44,0.0,0.0,74,0.00,,,0.00,520,WeatherCatV1.14B232,2013-08-12 00:08:00,
2013-08-11 20:13:00,70.5,61.8,30.01,NE,44,0.0,0.0,74,0.00,,,0.00,520,WeatherCatV1.14B232,2013-08-12 00:13:00,
2013-08-11 20:19:00,70.3,62.0,30.01,NE,44,0.0,0.0,75,0.00,,,0.00,520,WeatherCatV1.14B232,2013-08-12 00:19:00,
2013-08-11 20:24:00,70.2,61.9,30.01,NE,44,0.0,0.0,75,0.00,,,0.00,520,WeatherCatV1.14B232,2013-08-12 00:24:00,
2013-08-11 20:29:00,70.1,62.2,30.01,NE,44,0.0,0.0,76,0.00,,,0.00,520,WeatherCatV1.14B232,2013-08-12 00:29:00,
2013-08-11 20:34:00,70.2,62.3,30.01,NE,44,0.0,0.0,76,0.00,,,0.00,520,WeatherCatV1.14B232,2013-08-12 00:34:00,
2013-08-11 20:39:00,70.1,62.2,30.02,NE,44,0.0,0.0,76,0.00,,,0.00,520,WeatherCatV1.14B232,2013-08-12 00:39:00,
2013-08-11 20:44:00,70.1,62.2,30.02,NE,44,0.0,0.0,76,0.00,,,0.00,520,WeatherCatV1.14B232,2013-08-12 00:44:00,
2013-08-11 20:49:00,70.1,62.2,30.02,NE,44,0.0,0.0,76,0.00,,,0.00,520,WeatherCatV1.14B232,2013-08-12 00:49:00,
2013-08-11 20:54:00,70.1,62.2,30.02,NE,44,0.0,0.0,76,0.00,,,0.00,520,WeatherCatV1.14B232,2013-08-12 00:54:00,
2013-08-11 20:59:00,70.1,62.2,30.02,NE,44,0.0,0.0,76,0.00,,,0.00,520,WeatherCatV1.14B232,2013-08-12 00:59:00,
2013-08-11 21:04:00,70.1,62.2,30.02,NE,44,0.0,0.0,76,0.00,,,0.00,520,WeatherCatV1.14B232,2013-08-12 01:04:00,
2013-08-11 21:09:00,70.1,62.2,30.02,NE,44,0.0,0.0,76,0.00,,,0.00,520,WeatherCatV1.14B232,2013-08-12 01:09:00,
2013-08-11 21:14:00,70.1,62.9,30.02,NE,44,0.0,0.0,78,0.00,,,0.00,520,WeatherCatV1.14B232,2013-08-12 01:14:00,
2013-08-11 21:19:00,70.1,63.3,30.03,NE,44,0.0,0.0,79,0.00,,,0.00,520,WeatherCatV1.14B232,2013-08-12 01:19:00,
2013-08-11 21:24:00,70.0,63.2,30.03,NE,44,0.0,0.0,79,0.00,,,0.00,520,WeatherCatV1.14B232,2013-08-12 01:24:00,
2013-08-11 21:29:00,69.9,63.1,30.03,NE,44,0.0,0.0,79,0.00,,,0.00,520,WeatherCatV1.14B232,2013-08-12 01:29:00,
2013-08-11 21:34:00,70.0,63.2,30.03,NE,44,0.0,0.0,79,0.00,,,0.00,520,WeatherCatV1.14B232,2013-08-12 01:34:00,
2013-08-11 21:39:00,70.0,63.2,30.03,NE,44,0.0,0.0,79,0.00,,,0.00,520,WeatherCatV1.14B232,2013-08-12 01:39:00,
2013-08-11 21:44:00,69.9,62.7,30.03,NE,44,0.0,0.0,78,0.00,,,0.00,520,WeatherCatV1.14B232,2013-08-12 01:44:00,
2013-08-11 21:49:00,69.8,63.0,30.04,NE,44,0.0,0.0,79,0.00,,,0.00,520,WeatherCatV1.14B232,2013-08-12 01:49:00,
2013-08-11 21:54:00,69.9,62.7,30.03,NE,44,0.0,0.0,78,0.00,,,0.00,520,WeatherCatV1.14B232,2013-08-12 01:54:00,
2013-08-11 21:59:00,69.9,62.7,30.03,NE,44,0.0,0.0,78,0.00,,,0.00,520,WeatherCatV1.14B232,2013-08-12 01:59:00,
2013-08-11 22:04:00,70.1,62.9,30.03,NE,44,0.0,0.0,78,0.00,,,0.00,520,WeatherCatV1.14B232,2013-08-12 02:04:00,
2013-08-11 22:09:00,70.1,62.9,30.03,NE,44,0.0,0.0,78,0.00,,,0.00,520,WeatherCatV1.14B232,2013-08-12 02:09:00,
2013-08-11 22:14:00,70.0,62.8,30.03,NE,44,0.0,0.0,78,0.00,,,0.00,520,WeatherCatV1.14B232,2013-08-12 02:14:00,
2013-08-11 22:19:00,69.8,63.0,30.03,NE,44,0.0,0.0,79,0.00,,,0.00,520,WeatherCatV1.14B232,2013-08-12 02:19:00,
2013-08-11 22:24:00,69.6,63.1,30.03,NE,44,0.0,0.0,80,0.00,,,0.00,520,WeatherCatV1.14B232,2013-08-12 02:24:00,
2013-08-11 22:29:00,69.4,63.3,30.03,NE,44,0.0,0.0,81,0.00,,,0.00,520,WeatherCatV1.14B232,2013-08-12 02:29:00,
2013-08-11 22:34:00,69.2,63.1,30.03,NE,44,0.0,0.0,81,0.00,,,0.00,520,WeatherCatV1.14B232,2013-08-12 02:34:00,
2013-08-11 22:39:00,69.0,63.3,30.03,NE,44,0.0,0.0,82,0.00,,,0.00,520,WeatherCatV1.14B232,2013-08-12 02:39:00,
2013-08-11 22:44:00,69.0,63.6,30.03,NE,44,0.0,0.0,83,0.00,,,0.00,520,WeatherCatV1.14B232,2013-08-12 02:44:00,
2013-08-11 22:49:00,68.9,63.5,30.03,NE,44,0.0,0.0,83,0.00,,,0.00,520,WeatherCatV1.14B232,2013-08-12 02:49:00,
2013-08-11 22:54:00,68.8,63.4,30.03,NE,44,0.0,0.0,83,0.00,,,0.00,520,WeatherCatV1.14B232,2013-08-12 02:54:00,
2013-08-11 22:59:00,68.7,63.3,30.03,NE,44,0.0,0.0,83,0.00,,,0.00,520,WeatherCatV1.14B232,2013-08-12 02:59:00,
2013-08-11 23:04:00,68.5,63.1,30.03,NE,44,0.0,0.0,83,0.00,,,0.00,520,WeatherCatV1.14B232,2013-08-12 03:04:00,
2013-08-11 23:09:00,68.3,63.3,30.03,NE,44,0.0,0.0,84,0.00,,,0.00,520,WeatherCatV1.14B232,2013-08-12 03:09:00,
2013-08-11 23:14:00,68.1,63.1,30.02,NE,44,0.0,0.0,84,0.00,,,0.00,520,WeatherCatV1.14B232,2013-08-12 03:14:00,
2013-08-11 23:19:00,68.0,63.3,30.02,NE,44,0.0,0.0,85,0.00,,,0.00,520,WeatherCatV1.14B232,2013-08-12 03:19:00,
2013-08-11 23:22:00,68.0,63.3,30.02,NE,44,0.0,0.0,85,0.00,,,0.00,520,WeatherCatV1.14B232,2013-08-12 03:22:00,
2013-08-11 23:27:00,67.9,63.2,30.02,NE,44,0.0,0.0,85,0.00,,,0.00,520,WeatherCatV1.14B232,2013-08-12 03:27:00,
2013-08-11 23:32:00,67.8,63.5,30.02,NE,44,0.0,0.0,86,0.00,,,0.00,520,WeatherCatV1.14B232,2013-08-12 03:32:00,
2013-08-11 23:37:00,67.6,63.3,30.02,NE,44,0.0,0.0,86,0.00,,,0.00,520,WeatherCatV1.14B232,2013-08-12 03:37:00,
2013-08-11 23:42:00,67.4,63.4,30.02,NE,44,0.0,0.0,87,0.00,,,0.00,520,WeatherCatV1.14B232,2013-08-12 03:42:00,
2013-08-11 23:47:00,67.2,63.2,30.02,NE,44,0.0,0.0,87,0.00,,,0.00,520,WeatherCatV1.14B232,2013-08-12 03:47:00,
2013-08-11 23:52:00,66.9,62.9,30.02,NE,44,0.0,0.0,87,0.00,,,0.00,520,WeatherCatV1.14B232,2013-08-12 03:52:00,
2013-08-11 23:58:00,66.8,62.8,30.01,NE,44,0.0,0.0,87,0.00,,,0.00,520,WeatherCatV1.14B232,2013-08-12 03:58:00,